Location: Zagreb
(45.8000°N, 16.0000°E)
Time: 22:26:27
(UTC+01:00)

Tiros 1 despin weight - Pass Details

Date: 31 January 2020
Orbit: 594 x 642 km, 48.2° (Epoch: 24 February)

Event Time Altitude Azimuth Distance (km) Brightness Sun altitude
Rises 12:18:23 0° 281° (W) 2,868 ? 26.7°
Reaches altitude 10° 12:20:42 10° 284° (WNW) 1,971 ? 26.7°
Maximum altitude 12:25:13 68° 8° (N) 671 ? 26.6°
Drops below altitude 10° 12:29:48 10° 91° (E) 1,999 ? 26.6°
Sets 12:32:09 0° 94° (E) 2,913 ? 26.5°
